This is the latest recevied weather packets stored in our database for station/object WL7BUN-9. If no packets are shown the sender has not sent any weather packets the latest 10 day(s).
| Time | Temp. | Humidity | Pressure | Rain* | Wind** | Luminosity | Snow |
|---|---|---|---|---|---|---|---|
| 1787475210 | 8.89° C | 98% | 986.5 hPa | 1.78 mm | - | 0 W/m² | - |
| 1787474613 | 8.89° C | 98% | 986.6 hPa | 1.78 mm | - | 0 W/m² | - |
| 1787474010 | 8.89° C | 98% | 986.5 hPa | 1.78 mm | - | 0 W/m² | - |
| 1787473410 | 8.89° C | 98% | 986.2 hPa | 1.78 mm | - | 0 W/m² | - |
| 1787472810 | 8.89° C | 98% | 986.2 hPa | 1.78 mm | - | 0 W/m² | - |
| 1787472210 | 9.44° C | 98% | 986.4 hPa | 1.78 mm | - | 0 W/m² | - |
| 1787471610 | 9.44° C | 98% | 986.3 hPa | 1.78 mm | - | 0 W/m² | - |
| 1787471010 | 9.44° C | 98% | 986.1 hPa | 1.78 mm | - | 0 W/m² | - |
| 1787470410 | 9.44° C | 98% | 986.1 hPa | 1.78 mm | - | 0 W/m² | - |
| 1787469810 | 9.44° C | 98% | 986.1 hPa | 1.78 mm | - | 0 W/m² | - |
| 1787469210 | 9.44° C | 98% | 985.9 hPa | 1.78 mm | - | 0 W/m² | - |
| 1787468610 | 9.44° C | 97% | 985.9 hPa | 1.78 mm | - | 0 W/m² | - |
| 1787468011 | 9.44° C | 97% | 985.9 hPa | 1.78 mm | - | 0 W/m² | - |
| 1787467410 | 10° C | 97% | 985.8 hPa | 1.78 mm | - | 0 W/m² | - |
| 1787466210 | 10° C | 97% | 985.8 hPa | 1.52 mm | - | 0 W/m² | - |
| 1787465010 | 10° C | 97% | 985.5 hPa | 1.52 mm | - | 10 W/m² | - |
| 1787464411 | 10° C | 97% | 985.5 hPa | 1.27 mm | - | 30 W/m² | - |
| 1787463811 | 10.56° C | 97% | 985.4 hPa | 1.02 mm | - | 90 W/m² | - |
| 1787462611 | 10.56° C | 97% | 985.1 hPa | 1.02 mm | - | 329 W/m² | - |
| 1787462010 | 10.56° C | 96% | 984.9 hPa | 1.02 mm | - | 539 W/m² | - |
| 1787461410 | 10.56° C | 96% | 985.1 hPa | 1.02 mm | - | 759 W/m² | - |
| 1787460811 | 10.56° C | 96% | 985.1 hPa | 1.02 mm | - | 1039 W/m² | - |
| 1787460211 | 10.56° C | 96% | 984.9 hPa | 1.02 mm | - | 1448 W/m² | - |
| 1787459610 | 10.56° C | 96% | 984.9 hPa | 1.02 mm | - | 1889 W/m² | - |
| 1787459011 | 10.56° C | 95% | 984.8 hPa | 1.02 mm | - | 1128 W/m² | - |
* Rain latest hour (hover to see other rain measurements)
** Current wind speed in m/s (hover to see current wind gust speed)